This is the latest recevied weather packets stored in our database for station/object KB4MOX. If no packets are shown the sender has not sent any weather packets the latest 10 day(s).
| Time | Temp. | Humidity | Pressure | Rain* | Wind** | Luminosity | Snow |
|---|---|---|---|---|---|---|---|
| 1787435977 | 33.89° C | 50% | 1013.1 hPa | 0 mm | - | 258 W/m² | - |
| 1787435673 | 34.44° C | 50% | 1013.2 hPa | 0 mm | - | 279 W/m² | - |
| 1787435369 | 33.89° C | 50% | 1013 hPa | 0 mm | - | 296 W/m² | - |
| 1787435065 | 33.89° C | 50% | 1013.2 hPa | 0 mm | - | 310 W/m² | - |
| 1787434761 | 33.89° C | 50% | 1013.2 hPa | 0 mm | - | 328 W/m² | - |
| 1787434457 | 34.44° C | 51% | 1013.3 hPa | 0 mm | - | 343 W/m² | - |
| 1787434152 | 33.89° C | 50% | 1013.4 hPa | 0 mm | - | 360 W/m² | - |
| 1787433849 | 34.44° C | 49% | 1013.7 hPa | 0 mm | - | 379 W/m² | - |
| 1787433543 | 34.44° C | 49% | 1013.6 hPa | 0 mm | - | 392 W/m² | - |
| 1787433239 | 34.44° C | 51% | 1013.8 hPa | 0 mm | - | 404 W/m² | - |
| 1787432935 | 33.89° C | 52% | 1013.7 hPa | 0 mm | - | 420 W/m² | - |
| 1787432631 | 33.89° C | 50% | 1013.8 hPa | 0 mm | - | 437 W/m² | - |
| 1787432329 | 33.89° C | 51% | 1013.7 hPa | 0 mm | - | 448 W/m² | - |
| 1787432026 | 33.89° C | 49% | 1013.8 hPa | 0 mm | - | 467 W/m² | - |
| 1787431724 | 33.89° C | 48% | 1013.9 hPa | 0 mm | - | 475 W/m² | - |
| 1787431420 | 33.89° C | 51% | 1013.8 hPa | 0 mm | - | 498 W/m² | - |
| 1787431116 | 33.89° C | 50% | 1013.6 hPa | 0 mm | - | 521 W/m² | - |
| 1787430812 | 34.44° C | 50% | 1013.6 hPa | 0 mm | - | 536 W/m² | - |
| 1787430508 | 34.44° C | 48% | 1013.8 hPa | 0 mm | - | 551 W/m² | - |
| 1787430206 | 33.89° C | 48% | 1013.8 hPa | 0 mm | - | 567 W/m² | - |
| 1787429901 | 33.89° C | 51% | 1013.8 hPa | 0 mm | - | 572 W/m² | - |
| 1787429601 | 33.89° C | 51% | 1013.7 hPa | 0 mm | - | 587 W/m² | - |
| 1787429297 | 33.89° C | 52% | 1013.8 hPa | 0 mm | - | 602 W/m² | - |
| 1787428993 | 33.89° C | 49% | 1014 hPa | 0 mm | - | 623 W/m² | - |
| 1787428693 | 33.89° C | 52% | 1013.8 hPa | 0 mm | - | 650 W/m² | - |
* Rain latest hour (hover to see other rain measurements)
** Current wind speed in m/s (hover to see current wind gust speed)